Probability
0 1 2 3 3 1 0 0 0 0 0 0 0 0 0 0 0 0 0 0 0 0 0 0 0 1 1 1 2 2 1 1 2 3 5 7 8 10
0 1 2 3 3 3 2 1 1 0 0 0 0 0 0 0 0 0 0 0 0 0 0 0 0 0 0 0 1 1 0 0 1 2 3 4 5 6
1 1 1 2 4 5 4 3 2 0 0 0 0 0 0 0 0 0 0 0 0 0 0 0 0 0 0 0 0 0 0 0 0 1 1 2 3 4
2 2 2 3 4 5 4 3 1 0 0 0 0 0 0 0 0 0 0 0 0 0 0 0 0 0 0 0 0 0 0 0 0 0 0 0 2 3
1 2 3 5 5 5 5 3 1 0 0 0 0 0 0 0 0 0 0 0 0 0 0 0 0 0 0 0 0 0 0 0 0 0 0 0 1 2
1 2 4 5 6 6 5 3 1 0 0 0 0 0 0 0 0 0 0 0 0 0 0 0 0 0 0 0 0 0 0 0 0 0 0 0 0 1
3 3 4 4 4 5 5 4 2 1 1 1 1 1 0 0 0 0 0 1 0 0 0 0 0 0 0 0 1 0 0 0 0 0 0 0 0 0
6 5 5 4 3 3 3 3 2 2 2 2 2 2 1 0 0 0 0 0 0 0 0 0 0 0 0 0 0 0 0 0 0 0 0 0 0 0
7 7 6 4 3 2 1 1 1 1 1 3 3 3 3 1 0 0 0 0 0 0 0 0 0 0 0 0 0 0 0 0 0 0 0 0 0 0
5 6 6 6 4 3 2 2 1 0 1 2 2 3 3 2 0 0 0 0 0 0 1 1 1 1 0 0 0 0 0 0 0 0 0 0 0 0
4 6 6 6 5 3 3 4 3 1 0 1 1 1 1 1 0 0 1 1 1 1 2 2 2 1 1 0 0 0 0 0 0 0 0 0 0 0
4 6 6 6 4 2 3 5 5 3 2 1 0 0 0 0 0 1 2 2 2 3 3 3 3 2 2 2 1 1 0 1 1 0 0 0 0 0
5 5 5 4 2 1 1 3 4 3 3 3 1 0 0 0 1 2 3 3 3 3 4 3 3 3 3 3 3 2 3 3 2 1 1 0 0 0
4 4 3 2 1 0 1 2 2 2 4 4 3 2 1 1 2 3 3 3 3 4 4 4 3 3 3 3 3 4 6 6 4 3 2 1 0 0
2 1 1 1 0 0 1 1 1 2 4 5 5 5 5 4 3 3 3 3 3 4 4 4 4 4 3 3 3 4 6 7 4 3 2 1 1 0
1 0 0 0 0 1 2 1 2 4 5 6 6 8 7 5 3 3 3 3 3 4 4 4 4 5 4 4 3 3 4 5 3 1 1 1 1 1
0 0 0 0 1 2 3 3 4 5 6 6 7 8 7 5 4 4 4 3 3 3 4 3 3 3 4 4 3 2 3 4 4 2 1 1 1 0
0 0 0 0 1 2 3 3 4 4 5 6 6 7 6 6 5 4 4 4 3 3 2 2 2 2 2 2 2 2 3 4 4 3 1 0 0 0
0 0 0 0 1 2 3 3 3 3 4 4 4 5 6 6 5 3 3 3 2 1 1 1 1 1 1 0 0 1 1 2 3 2 1 0 0 0
0 0 0 0 1 2 3 3 3 3 3 3 3 4 4 4 3 1 1 1 1 0 0 0 1 1 0 0 0 0 0 1 1 0 0 0 0 0
0 0 0 0 1 3 3 3 3 3 3 3 3 3 2 1 1 1 1 0 0 0 0 0 0 0 0 0 0 0 0 0 0 0 0 0 0 0
0 0 0 1 2 3 3 3 3 3 3 3 3 2 1 0 0 1 1 0 0 0 0 0 0 0 0 0 0 0 0 0 0 0 0 0 0 0
0 0 1 2 3 3 3 3 3 3 3 3 3 1 0 0 0 1 1 0 0 0 0 1 1 1 0 0 0 0 0 0 0 0 0 0 0 0
Wind_Speed
2 2 2 2 2 2 2 2 2 2 2 2 1 1 1 1 1 1 1 1 1 1 1 2 2 3 3 3 4 4 4 4 4 4 5 6 6 6
2 2 2 2 1 1 1 1 2 2 2 1 1 1 1 1 0 1 1 1 1 1 1 1 1 2 2 3 3 4 4 4 4 4 5 5 6 6
2 2 3 2 1 1 1 1 1 2 2 2 1 1 1 1 1 1 1 1 1 1 2 1 1 1 1 2 2 3 4 4 4 4 5 5 5 6
3 3 3 2 2 2 2 2 2 2 3 2 1 1 2 2 1 1 1 1 1 1 1 1 1 1 1 1 2 2 3 3 3 3 3 4 4 5
4 4 3 3 3 2 3 2 2 2 2 2 2 1 1 1 1 1 1 1 2 2 2 1 1 1 1 2 2 2 2 3 3 3 3 3 3 4
4 4 4 5 5 4 3 4 3 2 2 2 2 1 1 1 1 1 1 1 1 2 1 1 1 1 2 2 3 2 2 2 3 3 3 3 3 3
3 4 5 5 6 5 4 4 4 3 3 3 2 1 2 1 2 2 2 1 2 1 1 1 1 1 2 2 3 3 3 3 3 4 4 3 3 3
4 4 4 5 6 6 7 7 7 6 5 4 3 3 4 3 2 2 1 1 1 1 1 2 1 2 2 2 2 3 4 4 4 4 4 4 4 4
4 4 4 4 5 4 5 6 7 8 8 6 5 5 5 4 4 3 3 2 2 2 1 2 1 2 2 2 3 3 4 4 4 4 4 4 4 4
5 5 5 5 5 5 4 4 5 6 7 6 6 6 5 4 5 5 4 2 1 1 2 2 2 2 2 2 2 3 4 5 4 4 5 5 5 5
5 5 5 5 6 6 5 5 4 4 4 6 6 5 5 5 4 3 3 2 1 2 2 2 1 1 2 2 2 3 4 5 5 5 5 5 5 5
4 4 5 5 5 6 5 5 5 4 3 3 3 4 4 5 6 6 5 4 2 2 2 2 1 1 1 1 1 1 2 3 4 5 5 5 5 4
3 4 3 5 6 6 6 5 6 5 4 3 3 3 2 3 4 4 4 5 4 3 3 3 2 2 2 1 1 1 1 1 2 2 3 4 5 5
4 4 3 4 5 6 5 5 5 4 3 3 3 3 3 3 3 3 4 4 4 4 4 4 2 3 2 2 2 1 1 1 1 1 2 2 4 5
3 4 4 3 3 3 5 5 4 4 3 3 4 4 3 3 2 2 2 2 2 2 3 4 3 3 3 2 2 2 1 1 2 2 1 2 2 2
2 2 2 1 1 2 2 2 3 3 4 4 4 3 2 2 2 2 2 2 1 1 2 3 3 4 3 3 2 2 2 2 2 1 1 1 2 3
1 0 0 0 0 1 1 1 2 2 3 3 3 2 2 2 2 2 2 2 2 2 1 1 1 2 3 3 2 3 2 2 2 1 1 1 2 2
2 1 1 1 2 2 2 2 2 2 2 3 3 3 3 3 2 2 2 2 3 2 1 1 1 1 1 1 3 3 2 1 1 2 2 2 2 2
2 2 2 3 3 3 3 3 2 2 2 2 2 3 3 3 2 2 2 2 2 2 1 1 2 2 2 2 1 3 3 2 1 1 1 2 2 2
2 3 3 3 3 3 3 3 2 2 2 2 2 2 3 3 3 3 3 3 3 2 2 1 2 3 4 3 2 1 3 3 2 2 1 1 1 1
3 4 4 3 3 3 3 3 3 3 3 2 2 3 2 3 3 3 3 3 3 2 3 3 3 3 2 2 1 1 1 2 2 2 2 2 2 1
4 4 4 3 3 3 3 2 3 3 3 3 3 2 3 3 3 4 3 3 3 3 4 2 1 2 2 3 2 2 2 1 1 1 1 2 2 3
4 4 4 3 3 3 3 3 4 3 3 3 3 3 3 3 3 3 3 3 3 3 2 2 1 2 2 3 3 2 2 2 1 1 2 3 4 3
Wind_Direction
216 214 218 228 211 215 201 188 182 215 252 267 259 272 277 268 284 271 272 329 333 330 322 284 262 241 221 216 213 203 190 193 197 199 207 211 212 215
209 205 228 234 222 209 198 202 198 194 233 249 257 287 277 269 282 273 271 321 309 301 304 315 294 254 223 212 210 201 196 203 203 202 208 214 214 216
224 211 226 220 208 208 182 182 192 180 216 269 264 279 250 258 297 289 270 273 294 293 286 291 295 262 220 197 194 200 200 203 206 209 213 216 216 217
232 223 230 216 215 211 184 196 208 203 199 226 252 267 260 242 250 252 269 273 274 286 282 278 250 220 206 202 201 200 202 203 200 202 210 215 217 218
227 222 224 207 223 220 202 203 211 206 197 202 233 250 271 259 244 259 264 279 279 282 264 266 255 233 212 214 212 195 194 203 202 199 209 215 215 213
235 229 226 215 217 216 211 208 199 191 193 196 214 237 254 252 198 228 276 288 288 293 302 306 279 248 227 218 218 203 197 207 204 204 209 216 213 210
250 242 235 223 219 214 210 201 191 188 190 195 209 221 231 215 221 226 247 278 278 257 278 291 292 279 261 240 227 212 200 201 204 201 203 205 203 204
252 256 247 234 229 223 219 206 194 192 196 198 208 217 230 224 220 213 220 242 264 246 246 279 268 267 271 249 234 220 209 207 210 204 200 201 202 201
244 245 251 245 229 224 224 223 220 218 206 200 207 221 221 211 199 210 214 222 241 236 227 261 262 265 265 260 239 227 222 221 221 216 211 209 206 204
249 240 240 247 234 218 220 225 229 229 221 215 216 225 221 210 202 204 209 215 258 239 209 233 246 258 274 267 254 231 228 222 224 226 220 214 212 210
260 246 240 242 238 218 210 223 235 241 229 224 224 227 224 214 197 180 186 190 234 242 199 215 236 260 271 265 258 246 238 227 225 227 226 222 214 206
271 260 245 240 238 216 210 211 222 230 220 218 225 232 228 215 201 198 194 196 211 238 199 192 208 213 255 253 262 266 254 237 232 229 227 224 211 201
262 264 255 240 232 221 214 215 218 210 205 209 220 231 228 220 216 209 201 197 201 225 198 184 192 199 222 259 270 251 238 230 224 227 223 211 203 199
246 254 251 239 231 225 218 220 209 197 198 201 212 220 222 222 222 218 214 216 219 228 204 188 193 197 204 234 250 245 235 224 221 235 234 197 197 202
244 252 256 251 241 227 222 214 197 194 195 204 217 223 224 217 206 206 210 211 230 236 205 208 203 194 200 215 228 236 245 245 225 230 220 210 207 192
261 276 283 278 244 225 217 207 203 201 201 213 221 222 208 194 192 189 191 179 193 239 222 215 207 195 206 217 217 232 229 223 226 235 226 220 208 200
232 304 320 306 291 248 233 212 195 191 205 213 209 199 197 195 195 184 178 176 198 215 220 209 218 217 213 200 211 228 233 242 233 205 197 216 234 220
158 209 239 241 244 242 235 228 208 207 215 212 206 196 194 195 194 179 176 190 207 220 222 211 171 162 188 233 216 222 227 234 232 202 199 208 233 231
182 220 228 231 237 239 234 228 224 221 212 206 201 197 194 194 190 195 194 199 215 220 215 196 185 178 200 247 255 210 216 219 196 198 218 229 245 250
219 229 234 235 236 237 232 228 225 217 206 206 199 197 193 192 193 198 202 209 214 215 212 205 200 201 212 226 241 252 225 218 209 222 245 254 265 270
231 231 234 236 238 235 230 224 216 210 204 201 203 202 202 201 205 208 209 211 214 217 220 230 233 212 184 168 204 252 257 239 228 226 224 234 249 248
238 236 232 229 233 234 225 214 208 207 203 204 209 213 207 207 213 215 210 209 212 219 231 236 187 170 175 198 228 253 272 300 290 246 249 238 234 232
234 233 229 225 228 229 221 210 208 212 214 215 217 221 214 210 215 217 218 216 220 225 227 214 182 186 207 216 226 247 264 277 290 281 291 299 259 251